JBU2783 KBOS-KRDU

Flight info

Callsign JBU2783
Flight time 1h 40m
Altitude 30000
Route SSOXS7 SSOXS Q167 ZJAAY TAQLE3
Aircraft A320/M-SDE3FGHIRWY/LB1

Departure

Time 2026-05-06 21:50
Airport Boston Logan International Airport (KBOS)

Arrival

Time 2026-05-06 23:30
Airport Raleigh-Durham International Airport (KRDU)
Time Latitude Longitude Altitude Speed Heading
2026-05-06 21:21 42.36639 -71.01530 26 ft 0 kts 238°
2026-05-06 21:39 42.36641 -71.01527 25 ft 2 kts 238°
2026-05-06 21:39 42.36649 -71.01508 27 ft 3 kts 232°
2026-05-06 21:39 42.36662 -71.01492 28 ft 3 kts 197°
2026-05-06 21:39 42.36679 -71.01489 27 ft 3 kts 162°
2026-05-06 21:40 42.36681 -71.01489 27 ft 0 kts 162°
2026-05-06 21:42 42.36680 -71.01488 27 ft 1 kts 157°
2026-05-06 21:42 42.36679 -71.01465 27 ft 5 kts 81°
2026-05-06 21:43 42.36691 -71.01396 25 ft 10 kts 78°
2026-05-06 21:43 42.36695 -71.01369 25 ft 0 kts 79°
2026-05-06 21:44 42.36695 -71.01368 25 ft 1 kts 79°
2026-05-06 21:44 42.36699 -71.01336 27 ft 5 kts 79°
2026-05-06 21:44 42.36706 -71.01293 25 ft 5 kts 76°
2026-05-06 21:44 42.36724 -71.01252 26 ft 5 kts 45°
2026-05-06 21:45 42.36764 -71.01249 29 ft 8 kts 338°
2026-05-06 21:45 42.36809 -71.01291 25 ft 8 kts 332°
2026-05-06 21:45 42.36853 -71.01261 28 ft 9 kts 40°
2026-05-06 21:45 42.36904 -71.01203 27 ft 12 kts 40°
2026-05-06 21:46 42.36968 -71.01129 25 ft 12 kts 40°
2026-05-06 21:46 42.37043 -71.01074 27 ft 13 kts 25°
2026-05-06 21:46 42.37123 -71.01022 27 ft 13 kts 25°
2026-05-06 21:46 42.37205 -71.00969 26 ft 13 kts 26°
2026-05-06 21:47 42.37290 -71.00914 28 ft 14 kts 23°
2026-05-06 21:47 42.37379 -71.00870 27 ft 14 kts 19°
2026-05-06 21:47 42.37468 -71.00827 27 ft 14 kts 20°
2026-05-06 21:47 42.37558 -71.00783 29 ft 14 kts 20°
2026-05-06 21:48 42.37647 -71.00740 28 ft 14 kts 19°
2026-05-06 21:48 42.37737 -71.00696 28 ft 14 kts 19°
2026-05-06 21:48 42.37824 -71.00647 25 ft 14 kts 41°
2026-05-06 21:48 42.37821 -71.00531 25 ft 13 kts 110°
2026-05-06 21:49 42.37783 -71.00478 28 ft 7 kts 188°
2026-05-06 21:49 42.37771 -71.00484 25 ft 0 kts 199°
2026-05-06 21:49 42.37757 -71.00491 27 ft 10 kts 199°
2026-05-06 21:49 42.37466 -71.00631 28 ft 76 kts 200°
2026-05-06 21:50 42.36794 -71.00956 26 ft 127 kts 199°
2026-05-06 21:50 42.35887 -71.01393 387 ft 139 kts 200°
2026-05-06 21:50 42.34969 -71.01803 1031 ft 140 kts 191°
2026-05-06 21:50 42.34011 -71.01565 1686 ft 150 kts 156°
2026-05-06 21:51 42.33275 -71.00385 2079 ft 180 kts 135°
2026-05-06 21:51 42.32500 -70.98950 2253 ft 199 kts 141°
2026-05-06 21:51 42.31619 -70.97375 2605 ft 224 kts 129°
2026-05-06 21:51 42.31218 -70.95220 3143 ft 259 kts 95°
2026-05-06 21:52 42.31475 -70.92667 3501 ft 288 kts 86°
2026-05-06 21:52 42.31861 -70.89938 4132 ft 301 kts 84°
2026-05-06 21:52 42.32284 -70.87147 4951 ft 306 kts 84°
2026-05-06 21:52 42.32718 -70.84308 5757 ft 311 kts 85°
2026-05-06 21:53 42.32936 -70.81405 6511 ft 310 kts 99°
2026-05-06 21:53 42.32659 -70.78551 7261 ft 304 kts 114°
2026-05-06 21:53 42.31928 -70.75912 8021 ft 298 kts 125°
2026-05-06 21:53 42.31036 -70.73355 8780 ft 304 kts 125°
2026-05-06 21:54 42.30019 -70.70871 9511 ft 299 kts 136°
2026-05-06 21:54 42.28630 -70.68840 10166 ft 291 kts 151°
2026-05-06 21:54 42.26921 -70.67334 10460 ft 298 kts 165°
2026-05-06 21:54 42.24932 -70.66354 10605 ft 314 kts 171°
2026-05-06 21:55 42.22786 -70.65409 10861 ft 332 kts 171°
2026-05-06 21:55 42.20571 -70.64413 11425 ft 338 kts 170°
2026-05-06 21:55 42.18357 -70.63397 12043 ft 343 kts 169°
2026-05-06 21:55 42.16074 -70.62483 12646 ft 341 kts 177°
2026-05-06 21:56 42.13736 -70.62166 13248 ft 336 kts 188°
2026-05-06 21:56 42.11437 -70.62505 13831 ft 331 kts 199°
2026-05-06 21:56 42.09238 -70.63392 14371 ft 331 kts 204°
2026-05-06 21:56 42.07044 -70.64373 14906 ft 334 kts 204°
2026-05-06 21:57 42.04824 -70.65354 15454 ft 337 kts 204°
2026-05-06 21:57 42.02584 -70.66339 16007 ft 340 kts 204°
2026-05-06 21:57 42.00326 -70.67329 16558 ft 344 kts 204°
2026-05-06 21:57 41.98036 -70.68333 17131 ft 348 kts 204°
2026-05-06 21:58 41.95722 -70.69346 17697 ft 352 kts 203°
2026-05-06 21:58 41.93383 -70.70370 18249 ft 356 kts 203°
2026-05-06 21:58 41.91018 -70.71405 18747 ft 360 kts 203°
2026-05-06 21:58 41.88626 -70.72433 19268 ft 363 kts 203°
2026-05-06 21:59 41.86206 -70.73467 19803 ft 366 kts 203°
2026-05-06 21:59 41.84593 -70.74156 20156 ft 368 kts 203°
2026-05-06 21:59 41.82139 -70.75201 20669 ft 372 kts 203°
2026-05-06 21:59 41.79664 -70.76251 21162 ft 375 kts 203°
2026-05-06 22:00 41.77166 -70.77309 21628 ft 378 kts 203°
2026-05-06 22:00 41.74645 -70.78372 22093 ft 381 kts 203°
2026-05-06 22:00 41.72104 -70.79439 22530 ft 384 kts 203°
2026-05-06 22:00 41.69541 -70.80511 22956 ft 388 kts 203°
2026-05-06 22:01 41.66953 -70.81590 23379 ft 391 kts 203°
2026-05-06 22:01 41.64370 -70.82747 23717 ft 391 kts 208°
2026-05-06 22:01 41.61989 -70.84444 24063 ft 386 kts 219°
2026-05-06 22:01 41.59906 -70.86680 24424 ft 383 kts 228°
2026-05-06 22:02 41.58166 -70.89348 24790 ft 380 kts 237°
2026-05-06 22:02 41.56689 -70.92278 25169 ft 381 kts 239°
2026-05-06 22:02 41.55216 -70.95224 25533 ft 382 kts 239°
2026-05-06 22:02 41.53736 -70.98178 25903 ft 384 kts 239°
2026-05-06 22:03 41.52250 -71.01140 26279 ft 385 kts 239°
2026-05-06 22:03 41.50757 -71.04114 26658 ft 386 kts 239°
2026-05-06 22:03 41.49264 -71.07093 27028 ft 387 kts 240°
2026-05-06 22:03 41.47768 -71.10081 27398 ft 388 kts 240°
2026-05-06 22:04 41.46264 -71.13079 27755 ft 389 kts 240°
2026-05-06 22:04 41.44758 -71.16081 28109 ft 390 kts 240°
2026-05-06 22:04 41.43246 -71.19092 28442 ft 392 kts 240°
2026-05-06 22:04 41.41730 -71.22101 28897 ft 390 kts 240°
2026-05-06 22:05 41.40223 -71.25092 29404 ft 387 kts 240°
2026-05-06 22:05 41.38726 -71.28065 29804 ft 386 kts 240°
2026-05-06 22:05 41.35797 -71.33861 29878 ft 372 kts 240°
2026-05-06 22:06 41.32926 -71.39540 29897 ft 369 kts 240°
2026-05-06 22:06 41.30069 -71.45200 29891 ft 369 kts 240°
2026-05-06 22:07 41.27208 -71.50858 29899 ft 369 kts 240°
2026-05-06 22:07 41.24323 -71.56549 29888 ft 369 kts 240°
2026-05-06 22:08 41.21464 -71.62161 29892 ft 369 kts 240°
2026-05-06 22:08 41.18585 -71.67811 29892 ft 370 kts 240°
2026-05-06 22:09 41.15694 -71.73462 29904 ft 370 kts 240°
2026-05-06 22:09 41.12808 -71.79117 29894 ft 370 kts 241°
2026-05-06 22:10 41.09934 -71.84783 29893 ft 370 kts 241°
2026-05-06 22:10 41.07054 -71.90447 29892 ft 371 kts 241°
2026-05-06 22:11 41.04167 -71.96109 29898 ft 371 kts 242°
2026-05-06 22:11 41.01828 -72.02114 29893 ft 366 kts 249°
2026-05-06 22:12 40.99672 -72.08230 29882 ft 366 kts 249°
2026-05-06 22:12 40.97515 -72.14342 29878 ft 367 kts 249°
2026-05-06 22:13 40.95358 -72.20450 29875 ft 367 kts 249°
2026-05-06 22:13 40.93187 -72.26555 29874 ft 367 kts 249°
2026-05-06 22:14 40.90592 -72.32338 29869 ft 375 kts 236°
2026-05-06 22:14 40.86891 -72.37287 29859 ft 379 kts 231°
2026-05-06 22:15 40.83133 -72.42185 29858 ft 380 kts 231°
2026-05-06 22:15 40.79309 -72.47018 29853 ft 385 kts 227°
2026-05-06 22:16 40.75172 -72.51507 29849 ft 385 kts 227°
2026-05-06 22:16 40.71024 -72.55994 29850 ft 386 kts 227°
2026-05-06 22:17 40.66892 -72.60523 29853 ft 386 kts 228°
2026-05-06 22:17 40.62862 -72.65180 29854 ft 385 kts 229°
2026-05-06 22:18 40.58849 -72.69862 29855 ft 386 kts 229°
2026-05-06 22:18 40.54810 -72.74525 29861 ft 387 kts 228°
2026-05-06 22:19 40.50748 -72.79169 29857 ft 387 kts 228°
2026-05-06 22:19 40.46673 -72.83811 29862 ft 388 kts 228°
2026-05-06 22:20 40.42594 -72.88465 29865 ft 388 kts 228°
2026-05-06 22:20 40.38514 -72.93116 29864 ft 389 kts 228°
2026-05-06 22:21 40.34427 -72.97772 29869 ft 389 kts 228°
2026-05-06 22:21 40.30337 -73.02417 29863 ft 389 kts 228°
2026-05-06 22:22 40.26235 -73.07060 29867 ft 390 kts 228°
2026-05-06 22:22 40.22130 -73.11700 29857 ft 390 kts 228°
2026-05-06 22:23 40.18026 -73.16342 29861 ft 390 kts 228°
2026-05-06 22:23 40.13916 -73.20979 29860 ft 391 kts 228°
2026-05-06 22:24 40.09814 -73.25592 29860 ft 392 kts 228°
2026-05-06 22:24 40.05675 -73.30243 29862 ft 393 kts 228°
2026-05-06 22:25 40.01524 -73.34888 29863 ft 394 kts 227°
2026-05-06 22:25 39.97362 -73.39543 29860 ft 394 kts 227°
2026-05-06 22:26 39.93197 -73.44205 29867 ft 395 kts 227°
2026-05-06 22:26 39.89015 -73.48873 29862 ft 396 kts 227°
2026-05-06 22:27 39.84815 -73.53543 29868 ft 397 kts 227°
2026-05-06 22:27 39.80613 -73.58221 29876 ft 398 kts 227°
2026-05-06 22:28 39.76400 -73.62903 29874 ft 399 kts 227°
2026-05-06 22:28 39.72179 -73.67584 29878 ft 399 kts 227°
2026-05-06 22:29 39.67962 -73.72266 29880 ft 399 kts 227°
2026-05-06 22:29 39.63732 -73.76945 29870 ft 400 kts 227°
2026-05-06 22:30 39.59496 -73.81624 29878 ft 400 kts 227°
2026-05-06 22:30 39.55258 -73.86301 29874 ft 400 kts 227°
2026-05-06 22:31 39.51015 -73.90973 29878 ft 401 kts 227°
2026-05-06 22:31 39.46796 -73.95617 29871 ft 401 kts 227°
2026-05-06 22:32 39.42539 -74.00286 29877 ft 401 kts 227°
2026-05-06 22:32 39.38275 -74.04955 29862 ft 402 kts 227°
2026-05-06 22:33 39.34004 -74.09622 29871 ft 402 kts 227°
2026-05-06 22:33 39.29728 -74.14287 29860 ft 403 kts 226°
2026-05-06 22:34 39.25442 -74.18949 29868 ft 403 kts 226°
2026-05-06 22:34 39.21152 -74.23616 29868 ft 404 kts 226°
2026-05-06 22:35 39.16851 -74.28284 29874 ft 405 kts 226°
2026-05-06 22:35 39.12537 -74.32956 29869 ft 405 kts 226°
2026-05-06 22:36 39.08219 -74.37632 29871 ft 406 kts 226°
2026-05-06 22:36 39.03895 -74.42315 29880 ft 407 kts 226°
2026-05-06 22:37 38.99557 -74.46992 29887 ft 407 kts 226°
2026-05-06 22:37 38.95207 -74.51661 29891 ft 408 kts 226°
2026-05-06 22:38 38.90923 -74.56416 29892 ft 406 kts 228°
2026-05-06 22:38 38.86776 -74.61335 29890 ft 406 kts 229°
2026-05-06 22:39 38.82639 -74.66267 29893 ft 406 kts 229°
2026-05-06 22:39 38.78465 -74.71167 29888 ft 407 kts 228°
2026-05-06 22:40 38.74258 -74.76029 29896 ft 408 kts 227°
2026-05-06 22:40 38.69912 -74.80658 29891 ft 410 kts 224°
2026-05-06 22:41 38.63215 -74.87474 29893 ft 410 kts 224°
2026-05-06 22:42 38.58773 -74.92059 29900 ft 410 kts 225°
2026-05-06 22:42 38.54350 -74.96661 29904 ft 410 kts 225°
2026-05-06 22:43 38.49968 -75.01319 29904 ft 409 kts 226°
2026-05-06 22:43 38.45182 -75.05331 29909 ft 419 kts 212°
2026-05-06 22:44 38.39906 -75.08520 29904 ft 420 kts 211°
2026-05-06 22:44 38.34631 -75.11718 29899 ft 420 kts 211°
2026-05-06 22:45 38.29349 -75.14939 29898 ft 421 kts 211°
2026-05-06 22:45 38.24074 -75.18176 29897 ft 421 kts 211°
2026-05-06 22:46 38.18793 -75.21434 29895 ft 422 kts 211°
2026-05-06 22:46 38.13514 -75.24710 29898 ft 422 kts 211°
2026-05-06 22:47 38.08243 -75.28002 29898 ft 423 kts 211°
2026-05-06 22:47 38.02972 -75.31313 29906 ft 423 kts 211°
2026-05-06 22:48 37.97703 -75.34641 29903 ft 423 kts 211°
2026-05-06 22:48 37.92472 -75.37966 29906 ft 423 kts 211°
2026-05-06 22:49 37.87214 -75.41331 29902 ft 424 kts 211°
2026-05-06 22:49 37.81961 -75.44715 29902 ft 424 kts 211°
2026-05-06 22:50 37.76712 -75.48121 29897 ft 424 kts 211°
2026-05-06 22:50 37.71461 -75.51542 29899 ft 425 kts 212°
2026-05-06 22:51 37.67094 -75.54389 29899 ft 425 kts 212°
2026-05-06 22:51 37.61796 -75.57842 29903 ft 426 kts 212°
2026-05-06 22:52 37.56567 -75.61251 29899 ft 426 kts 212°
2026-05-06 22:52 37.51260 -75.64711 29906 ft 427 kts 212°
2026-05-06 22:53 37.46020 -75.68130 29904 ft 427 kts 212°
2026-05-06 22:53 37.40704 -75.71596 29906 ft 428 kts 212°
2026-05-06 22:54 37.35451 -75.75021 29904 ft 428 kts 212°
2026-05-06 22:54 37.30288 -75.78687 29861 ft 421 kts 224°
2026-05-06 22:54 37.28328 -75.81331 29207 ft 410 kts 241°
2026-05-06 22:55 37.27176 -75.84569 28684 ft 406 kts 258°
2026-05-06 22:55 37.26925 -75.88071 28215 ft 405 kts 276°
2026-05-06 22:55 37.27593 -75.91483 27742 ft 404 kts 293°
2026-05-06 22:55 37.28922 -75.94595 27413 ft 405 kts 298°
2026-05-06 22:56 37.30344 -75.97637 27125 ft 400 kts 299°
2026-05-06 22:56 37.31752 -76.00614 26851 ft 395 kts 299°
2026-05-06 22:56 37.33156 -76.03566 26574 ft 393 kts 299°
2026-05-06 22:56 37.34561 -76.06504 26302 ft 392 kts 299°
2026-05-06 22:57 37.35969 -76.09430 26030 ft 391 kts 299°
2026-05-06 22:57 37.37321 -76.12386 25768 ft 388 kts 292°
2026-05-06 22:57 37.38071 -76.15611 25490 ft 384 kts 276°
2026-05-06 22:57 37.38027 -76.18940 25225 ft 381 kts 259°
2026-05-06 22:58 37.37204 -76.22087 24978 ft 381 kts 245°
2026-05-06 22:58 37.36020 -76.25068 24768 ft 380 kts 244°
2026-05-06 22:58 37.34828 -76.28033 24529 ft 379 kts 244°
2026-05-06 22:58 37.33635 -76.30985 24299 ft 378 kts 243°
2026-05-06 22:59 37.32446 -76.33922 24072 ft 377 kts 243°
2026-05-06 22:59 37.31262 -76.36848 23907 ft 375 kts 243°
2026-05-06 22:59 37.30083 -76.39768 23914 ft 375 kts 243°
2026-05-06 22:59 37.28904 -76.42693 23917 ft 375 kts 243°
2026-05-06 23:00 37.27728 -76.45616 23918 ft 375 kts 243°
2026-05-06 23:00 37.26532 -76.48527 23926 ft 375 kts 240°
2026-05-06 23:00 37.25060 -76.51232 23922 ft 376 kts 232°
2026-05-06 23:00 37.23418 -76.53782 23922 ft 376 kts 232°
2026-05-06 23:01 37.21781 -76.56335 23913 ft 376 kts 232°
2026-05-06 23:01 37.20147 -76.58891 23915 ft 375 kts 232°
2026-05-06 23:01 37.18516 -76.61442 23913 ft 375 kts 232°
2026-05-06 23:01 37.16883 -76.63991 23913 ft 375 kts 232°
2026-05-06 23:02 37.15246 -76.66536 23916 ft 375 kts 232°
2026-05-06 23:02 37.13609 -76.69077 23918 ft 375 kts 232°
2026-05-06 23:02 37.11977 -76.71618 23913 ft 374 kts 232°
2026-05-06 23:02 37.10353 -76.74171 23836 ft 375 kts 232°
2026-05-06 23:03 37.08734 -76.76718 23609 ft 373 kts 232°
2026-05-06 23:03 37.07127 -76.79259 23357 ft 371 kts 232°
2026-05-06 23:03 37.05529 -76.81792 23092 ft 370 kts 232°
2026-05-06 23:03 37.03937 -76.84312 22827 ft 369 kts 232°
2026-05-06 23:04 37.02347 -76.86823 22558 ft 367 kts 232°
2026-05-06 23:04 37.00764 -76.89322 22295 ft 366 kts 232°
2026-05-06 23:04 36.99183 -76.91811 22036 ft 365 kts 232°
2026-05-06 23:04 36.97595 -76.94280 21894 ft 364 kts 232°
2026-05-06 23:05 36.95993 -76.96730 21861 ft 365 kts 232°
2026-05-06 23:05 36.94381 -76.99174 21587 ft 363 kts 231°
2026-05-06 23:05 36.92773 -77.01607 21324 ft 362 kts 232°
2026-05-06 23:05 36.91171 -77.04029 21077 ft 361 kts 232°
2026-05-06 23:06 36.89574 -77.06443 20827 ft 360 kts 232°
2026-05-06 23:06 36.87982 -77.08850 20573 ft 359 kts 232°
2026-05-06 23:06 36.86394 -77.11252 20325 ft 358 kts 232°
2026-05-06 23:06 36.84812 -77.13644 20081 ft 357 kts 232°
2026-05-06 23:07 36.83233 -77.16030 19839 ft 356 kts 232°
2026-05-06 23:07 36.81660 -77.18407 19594 ft 355 kts 232°
2026-05-06 23:07 36.80088 -77.20776 19358 ft 353 kts 232°
2026-05-06 23:07 36.78538 -77.23110 19136 ft 345 kts 232°
2026-05-06 23:08 36.77016 -77.25388 18910 ft 340 kts 232°
2026-05-06 23:08 36.75501 -77.27645 18674 ft 338 kts 232°
2026-05-06 23:08 36.73991 -77.29889 18444 ft 337 kts 232°
2026-05-06 23:08 36.72487 -77.32125 18213 ft 336 kts 232°
2026-05-06 23:09 36.70990 -77.34354 17953 ft 335 kts 232°
2026-05-06 23:09 36.69517 -77.36546 17697 ft 333 kts 232°
2026-05-06 23:09 36.68012 -77.38783 17426 ft 332 kts 232°
2026-05-06 23:09 36.66534 -77.40981 17171 ft 330 kts 232°
2026-05-06 23:10 36.65062 -77.43166 16911 ft 329 kts 232°
2026-05-06 23:10 36.63594 -77.45340 16649 ft 327 kts 232°
2026-05-06 23:10 36.62133 -77.47501 16400 ft 326 kts 232°
2026-05-06 23:10 36.60679 -77.49652 16142 ft 324 kts 232°
2026-05-06 23:11 36.59231 -77.51792 15891 ft 323 kts 232°
2026-05-06 23:11 36.57790 -77.53926 15640 ft 321 kts 232°
2026-05-06 23:11 36.56377 -77.56018 15411 ft 320 kts 232°
2026-05-06 23:11 36.54949 -77.58129 15160 ft 318 kts 231°
2026-05-06 23:12 36.53523 -77.60231 14918 ft 317 kts 231°
2026-05-06 23:12 36.52104 -77.62323 14672 ft 316 kts 231°
2026-05-06 23:12 36.50690 -77.64405 14436 ft 315 kts 231°
2026-05-06 23:12 36.49279 -77.66478 14199 ft 313 kts 231°
2026-05-06 23:13 36.47877 -77.68544 13966 ft 312 kts 231°
2026-05-06 23:13 36.46481 -77.70604 13731 ft 311 kts 231°
2026-05-06 23:13 36.45092 -77.72655 13471 ft 310 kts 231°
2026-05-06 23:13 36.43709 -77.74695 13210 ft 308 kts 231°
2026-05-06 23:14 36.42326 -77.76729 12955 ft 313 kts 231°
2026-05-06 23:14 36.40911 -77.78803 12693 ft 316 kts 231°
2026-05-06 23:14 36.39491 -77.80881 12442 ft 315 kts 231°
2026-05-06 23:14 36.38080 -77.82948 12189 ft 313 kts 231°
2026-05-06 23:15 36.36675 -77.85004 11941 ft 311 kts 231°
2026-05-06 23:15 36.35279 -77.87049 11690 ft 310 kts 231°
2026-05-06 23:15 36.33892 -77.89084 11443 ft 308 kts 231°
2026-05-06 23:15 36.32513 -77.91105 11202 ft 306 kts 231°
2026-05-06 23:16 36.31138 -77.93118 10959 ft 304 kts 231°
2026-05-06 23:16 36.29789 -77.95086 10755 ft 294 kts 231°
2026-05-06 23:16 36.28484 -77.96985 10590 ft 285 kts 231°
2026-05-06 23:16 36.27219 -77.98825 10421 ft 276 kts 231°
2026-05-06 23:17 36.25995 -78.00607 10261 ft 268 kts 231°
2026-05-06 23:17 36.24791 -78.02357 10091 ft 267 kts 231°
2026-05-06 23:17 36.23607 -78.04115 9937 ft 265 kts 234°
2026-05-06 23:17 36.22652 -78.06049 9764 ft 263 kts 244°
2026-05-06 23:18 36.21900 -78.08110 9584 ft 262 kts 245°
2026-05-06 23:18 36.21148 -78.10165 9405 ft 262 kts 245°
2026-05-06 23:18 36.20407 -78.12216 9230 ft 260 kts 246°
2026-05-06 23:18 36.19705 -78.14280 9043 ft 260 kts 247°
2026-05-06 23:19 36.19018 -78.16348 8813 ft 259 kts 247°
2026-05-06 23:19 36.18338 -78.18407 8593 ft 258 kts 247°
2026-05-06 23:19 36.17655 -78.20463 8360 ft 257 kts 247°
2026-05-06 23:19 36.16972 -78.22506 8139 ft 257 kts 246°
2026-05-06 23:20 36.16289 -78.24549 7917 ft 257 kts 246°
2026-05-06 23:20 36.15606 -78.26587 7694 ft 255 kts 246°
2026-05-06 23:20 36.14976 -78.28632 7477 ft 254 kts 254°
2026-05-06 23:20 36.14591 -78.30770 7211 ft 255 kts 256°
2026-05-06 23:21 36.14214 -78.32908 6879 ft 254 kts 256°
2026-05-06 23:21 36.13835 -78.35045 6549 ft 254 kts 256°
2026-05-06 23:21 36.13461 -78.37135 6264 ft 244 kts 255°
2026-05-06 23:21 36.13097 -78.39158 6001 ft 239 kts 255°
2026-05-06 23:22 36.12739 -78.41146 5757 ft 234 kts 255°
2026-05-06 23:22 36.12391 -78.43079 5556 ft 227 kts 255°
2026-05-06 23:22 36.12054 -78.44958 5380 ft 220 kts 254°
2026-05-06 23:22 36.11706 -78.46743 5209 ft 211 kts 246°
2026-05-06 23:23 36.10984 -78.48260 5020 ft 202 kts 232°
2026-05-06 23:23 36.10139 -78.49649 4790 ft 202 kts 234°
2026-05-06 23:23 36.09374 -78.51082 4449 ft 202 kts 230°
2026-05-06 23:23 36.08453 -78.52415 4024 ft 206 kts 226°
2026-05-06 23:24 36.07430 -78.53728 3423 ft 219 kts 224°
2026-05-06 23:24 36.06342 -78.55087 3061 ft 221 kts 224°
2026-05-06 23:24 36.05292 -78.56394 3000 ft 207 kts 224°
2026-05-06 23:24 36.04304 -78.57623 3001 ft 198 kts 225°
2026-05-06 23:25 36.03336 -78.58825 3004 ft 197 kts 224°
2026-05-06 23:25 36.02402 -78.59986 2999 ft 186 kts 224°
2026-05-06 23:25 36.01505 -78.61101 3001 ft 182 kts 224°
2026-05-06 23:25 36.00618 -78.62202 3001 ft 180 kts 224°
2026-05-06 23:26 35.99737 -78.63296 3002 ft 180 kts 224°
2026-05-06 23:26 35.98854 -78.64392 3004 ft 180 kts 224°
2026-05-06 23:26 35.97999 -78.65454 3027 ft 168 kts 224°
2026-05-06 23:26 35.97189 -78.66458 2894 ft 163 kts 224°
2026-05-06 23:27 35.96397 -78.67440 2706 ft 158 kts 224°
2026-05-06 23:27 35.95650 -78.68366 2515 ft 146 kts 224°
2026-05-06 23:27 35.94952 -78.69231 2349 ft 139 kts 224°
2026-05-06 23:27 35.94280 -78.70064 2174 ft 137 kts 224°
2026-05-06 23:28 35.93601 -78.70905 1992 ft 137 kts 224°
2026-05-06 23:28 35.92928 -78.71737 1816 ft 137 kts 224°
2026-05-06 23:28 35.92264 -78.72560 1637 ft 134 kts 222°
2026-05-06 23:28 35.91609 -78.73371 1467 ft 134 kts 223°
2026-05-06 23:29 35.90943 -78.74196 1277 ft 136 kts 223°
2026-05-06 23:29 35.90275 -78.75023 1134 ft 134 kts 224°
2026-05-06 23:29 35.89616 -78.75834 950 ft 134 kts 224°
2026-05-06 23:29 35.88962 -78.76648 751 ft 133 kts 223°
2026-05-06 23:30 35.88309 -78.77456 582 ft 133 kts 224°
2026-05-06 23:30 35.87654 -78.78263 448 ft 133 kts 225°
2026-05-06 23:30 35.87124 -78.78919 430 ft 73 kts 225°
2026-05-06 23:30 35.86867 -78.79237 437 ft 32 kts 225°
2026-05-06 23:31 35.86780 -78.79410 438 ft 17 kts 250°
2026-05-06 23:31 35.86774 -78.79517 436 ft 8 kts 303°
2026-05-06 23:31 35.86781 -78.79525 421 ft 2 kts 313°
2026-05-06 23:31 35.86783 -78.79528 421 ft 1 kts 313°
2026-05-06 23:32 35.86783 -78.79529 421 ft 1 kts 313°
2026-05-06 23:32 35.86809 -78.79560 425 ft 8 kts 314°
2026-05-06 23:32 35.86870 -78.79635 434 ft 15 kts 315°
2026-05-06 23:32 35.86951 -78.79734 427 ft 10 kts 315°
2026-05-06 23:33 35.87021 -78.79820 417 ft 16 kts 315°
2026-05-06 23:33 35.87065 -78.79874 412 ft 9 kts 315°
2026-05-06 23:33 35.87139 -78.79952 407 ft 17 kts 325°
2026-05-06 23:33 35.87217 -78.80013 403 ft 12 kts 333°
2026-05-06 23:34 35.87292 -78.80056 393 ft 9 kts 340°
2026-05-06 23:34 35.87343 -78.80025 392 ft 12 kts 46°
2026-05-06 23:34 35.87412 -78.79939 391 ft 15 kts 45°
2026-05-06 23:34 35.87480 -78.79855 391 ft 11 kts 62°
2026-05-06 23:35 35.87444 -78.79778 392 ft 11 kts 135°
2026-05-06 23:35 35.87389 -78.79712 392 ft 12 kts 135°
2026-05-06 23:35 35.87408 -78.79625 392 ft 12 kts 45°
2026-05-06 23:35 35.87462 -78.79557 392 ft 10 kts 45°
2026-05-06 23:36 35.87492 -78.79521 392 ft 2 kts 45°
2026-05-06 23:36 35.87513 -78.79495 392 ft 6 kts 45°
2026-05-06 23:36 35.87534 -78.79490 392 ft 5 kts 343°
2026-05-06 23:36 35.87558 -78.79515 392 ft 2 kts 315°
2026-05-06 23:37 35.87562 -78.79520 392 ft 0 kts 315°